2023-001E (55013 NORAD) Tracking and Keplerian Element Data

This shows tracking and keplerian element data for the satellite.

Feedback or suggestion? Click here.




ElementValue
Catalog55013
Name2023-001E
Epoch Orbit169
Epoch Day13.78829203
Epoch Year2023
RAAN75.723
Inclination97.4993
Eccentricity0.0010308
Argument of Perigee181.3023
Mean Anonmoly178.8183
Mean Motion15.12222143
Decay Rate0.00016586
L11 55013U 23001E 23013.78829203 .00016586 00000+0 96120-3 0 9994
L22 55013 97.4993 75.7230 0010308 181.3023 178.8183 15.12222143 1696



Live tracking and technical data element details for 2023-001E (NORAD 55013). 2023-001E can be tracked NOW for your location showing map with azimuth and elevation plus other details from your city location.







IsCatalogInMostPopularTable: catalog: 55013, numindb: 3
Update: records affected: 1



GetName: 55013 2023-001E

Hit Count: updated at: Tue, 07 Feb 2023 15:29:11 GMT